H1 CPF 2 NER 2022 6 7 9 158 01 glonass132 H2 1401201 9132 39620 2022 6 7 0 0 0 2022 6 10 23 45 0 900 1 1 0 0 0 1 H9 10 0 59737 0.00000 0 10940953.660 -21549461.006 -8234483.158 10 0 59737 900.00000 0 10415154.969 -20453551.332 -11177666.739 10 0 59737 1800.00000 0 9900935.061 -18980452.479 -13904262.093 10 0 59737 2700.00000 0 9453788.705 -17157470.676 -16361359.201 10 0 59737 3600.00000 0 9123802.776 -15024142.040 -18501230.470 10 0 59737 4500.00000 0 8953386.800 -12630786.605 -20282257.326 10 0 59737 5400.00000 0 8975336.803 -10036622.681 -21669741.725 10 0 59737 6300.00000 0 9211314.630 -7307518.177 -22636586.820 10 0 59737 7200.00000 0 9670807.800 -4513470.862 -23163833.267 10 0 59737 8100.00000 0 10350615.093 -1725920.875 -23241040.266 10 0 59737 9000.00000 0 11234881.262 984993.955 -22866503.163 10 0 59737 9900.00000 0 12295681.298 3553126.522 -22047302.347 10 0 59737 10800.00000 0 13494131.592 5918841.202 -20799181.308 10 0 59737 11700.00000 0 14781983.042 8031262.055 -19146254.885 10 0 59737 12600.00000 0 16103630.423 9850154.471 -17120552.146 10 0 59737 13500.00000 0 17398454.375 11347361.375 -14761401.590 10 0 59737 14400.00000 0 18603397.691 12507733.592 -12114669.809 10 0 59737 15300.00000 0 19655667.012 13329515.095 -9231867.940 10 0 59737 16200.00000 0 20495445.141 13824167.102 -6169143.337 10 0 59737 17100.00000 0 21068498.231 14015638.898 -2986176.506 10 0 59737 18000.00000 0 21328566.161 13939117.012 254994.156 10 0 59737 18900.00000 0 21239433.556 13639306.927 3491195.622 10 0 59737 19800.00000 0 20776592.426 13168321.704 6659366.139 10 0 59737 20700.00000 0 19928425.075 12583268.739 9697797.725 10 0 59737 21600.00000 0 18696856.548 11943638.869 12547349.554 10 0 59737 22500.00000 0 17097448.838 11308610.182 15152607.318 10 0 59737 23400.00000 0 15158933.045 10734382.218 17462965.020 10 0 59737 24300.00000 0 12922199.670 10271654.414 19433607.801 10 0 59737 25200.00000 0 10438790.107 9963355.892 21026376.840 10 0 59737 26100.00000 0 7768953.338 9842722.431 22210500.093 10 0 59737 27000.00000 0 4979349.645 9931801.146 22963175.801 10 0 59737 27900.00000 0 2140497.436 10240444.914 23269998.783 10 0 59737 28800.00000 0 -675930.512 10765837.642 23125222.754 10 0 59737 29700.00000 0 -3399849.569 11492569.045 22531855.103 10 0 59737 30600.00000 0 -5965431.713 12393254.601 21501583.650 10 0 59737 31500.00000 0 -8313590.583 13429673.734 20054537.889 10 0 59737 32400.00000 0 -10394181.925 14554377.867 18218890.139 10 0 59737 33300.00000 0 -12167830.196 15712700.720 16030304.671 10 0 59737 34200.00000 0 -13607307.582 16845086.706 13531245.587 10 0 59737 35100.00000 0 -14698410.276 17889640.254 10770156.548 10 0 59737 36000.00000 0 -15440297.506 18784789.864 7800527.728 10 0 59737 36900.00000 0 -15845280.817 19471955.869 4679867.417 10 0 59737 37800.00000 0 -15938073.777 19898110.750 1468597.423 10 0 59737 38700.00000 0 -15754534.420 20018125.140 -1771107.182 10 0 59737 39600.00000 0 -15339953.626 19796801.360 -4976512.173 10 0 59737 40500.00000 0 -14746961.449 19210509.175 -8085529.782 10 0 59737 41400.00000 0 -14033139.173 18248354.696 -11037913.144 10 0 59737 42300.00000 0 -13258437.120 16912832.615 -13776416.921 10 0 59737 43200.00000 0 -12482506.373 15219933.186 -16247902.206 10 0 59737 44100.00000 0 -11762056.209 13198697.842 -18404364.699 10 0 59737 45000.00000 0 -11148348.107 10890240.153 -20203866.486 10 0 59737 45900.00000 0 -10684931.674 8346270.893 -21611353.548 10 0 59737 46800.00000 0 -10405717.933 5627186.546 -22599343.114 10 0 59737 47700.00000 0 -10333471.594 2799798.862 -23148467.257 10 0 59737 48600.00000 0 -10478786.627 -65201.900 -23247861.672 10 0 59737 49500.00000 0 -10839589.487 -2895946.154 -22895391.355 10 0 59737 50400.00000 0 -11401192.335 -5622135.336 -22097707.776 10 0 59737 51300.00000 0 -12136895.635 -8177729.804 -20870135.242 10 0 59737 52200.00000 0 -13009116.261 -10503462.701 -19236387.379 10 0 59737 53100.00000 0 -13970994.960 -12549074.862 -17228117.948 10 0 59737 54000.00000 0 -14968416.332 -14275177.240 -14884313.597 10 0 59737 54900.00000 0 -15942356.632 -15654662.547 -12250539.437 10 0 59737 55800.00000 0 -16831460.157 -16673606.528 -9378051.685 10 0 59737 56700.00000 0 -17574734.745 -17331620.907 -6322794.579 10 0 59737 57600.00000 0 -18114251.315 -17641643.275 -3144301.534 10 0 59737 58500.00000 0 -18397731.752 -17629173.327 95477.073 10 0 59737 59400.00000 0 -18380914.015 -17330988.700 3333395.368 10 0 59737 60300.00000 0 -18029592.746 -16793396.094 6506357.337 10 0 59737 61200.00000 0 -17321247.635 -16070093.364 9552560.102 10 0 59737 62100.00000 0 -16246189.634 -15219734.936 12412709.310 10 0 59737 63000.00000 0 -14808175.902 -14303305.428 15031181.724 10 0 59737 63900.00000 0 -13024467.400 -13381414.207 17357111.330 10 0 59737 64800.00000 0 -10925326.831 -12511626.503 19345377.506 10 0 59737 65700.00000 0 -8552978.438 -11745944.513 20957476.125 10 0 59737 66600.00000 0 -5960073.903 -11128544.893 22162257.241 10 0 59737 67500.00000 0 -3207729.016 -10693867.543 22936516.100 10 0 59737 68400.00000 0 -363213.418 -10465135.125 23265427.389 10 0 59737 69300.00000 0 2502610.256 -10453364.261 23142815.747 10 0 59737 70200.00000 0 5317991.689 -10656908.346 22571258.848 10 0 59737 71100.00000 0 8013031.137 -11061549.612 21562022.414 10 0 59737 72000.00000 0 10522338.092 -11641135.136 20134829.522 10 0 59737 72900.00000 0 12787501.690 -12358728.956 18317469.467 10 0 59737 73800.00000 0 14759272.223 -13168231.207 16145254.129 10 0 59737 74700.00000 0 16399365.103 -14016395.996 13660332.495 10 0 59737 75600.00000 0 17681814.356 -14845163.338 10910876.314 10 0 59737 76500.00000 0 18593821.244 -15594207.646 7950152.157 10 0 59737 77400.00000 0 19136064.243 -16203596.267 4835497.217 10 0 59737 78300.00000 0 19322458.883 -16616447.022 1627217.937 10 0 59737 79200.00000 0 19179378.425 -16781473.661 -1612568.072 10 0 59737 80100.00000 0 18744368.632 -16655312.646 -4821125.054 10 0 59737 81000.00000 0 18064410.701 -16204533.588 -7936304.743 10 0 59737 81900.00000 0 17193805.169 -15407248.611 -10897741.945 10 0 59737 82800.00000 0 16191765.232 -14254252.386 -13648017.407 10 0 59737 83700.00000 0 15119820.082 -12749643.856 -16133765.990 10 0 59737 84600.00000 0 14039136.749 -10910902.017 -18306709.121 10 0 59737 85500.00000 0 13007872.473 -8768410.698 -20124591.710 10 0 59738 0.00000 0 12078668.499 -6364450.217 -21552005.507 10 0 59738 900.00000 0 11296389.988 -3751694.313 -22561083.607 10 0 59738 1800.00000 0 10696208.324 -991276.045 -23132050.488 10 0 59738 2700.00000 0 10302105.172 1849503.326 -23253619.074 10 0 59738 3600.00000 0 10125863.187 4699725.833 -22923224.329 10 0 59738 4500.00000 0 10166586.298 7487565.217 -22147088.674 10 0 59738 5400.00000 0 10410771.001 10143040.452 -20940116.702 10 0 59738 6300.00000 0 10832926.888 12600700.306 -19325619.859 10 0 59738 7200.00000 0 11396721.409 14802127.133 -17334875.234 10 0 59738 8100.00000 0 12056601.433 16698155.179 -15006525.835 10 0 59738 9000.00000 0 12759823.675 18250710.242 -12385833.109 10 0 59738 9900.00000 0 13448808.186 19434193.004 -9523795.770 10 0 59738 10800.00000 0 14063714.890 20236347.607 -6476152.014 10 0 59738 11700.00000 0 14545133.099 20658578.742 -3302284.938 10 0 59738 12600.00000 0 14836768.745 20715704.025 -64053.465 10 0 59738 13500.00000 0 14888013.829 20435152.788 3175427.200 10 0 59738 14400.00000 0 14656287.528 19855646.144 6353030.290 10 0 59738 15300.00000 0 14109048.205 19025415.561 9406861.389 10 0 59738 16200.00000 0 13225389.795 18000037.004 12277475.750 10 0 59738 17100.00000 0 11997154.101 16839973.974 14909044.029 10 0 59738 18000.00000 0 10429511.489 15607934.986 17250442.697 10 0 59738 18900.00000 0 8540985.347 14366158.482 19256247.504 10 0 59738 19800.00000 0 6362919.416 13173740.625 20887610.794 10 0 59738 20700.00000 0 3938410.800 12084118.964 22113006.091 10 0 59738 21600.00000 0 1320753.748 11142817.595 22908826.643 10 0 59738 22500.00000 0 -1428540.455 10385547.754 23259827.560 10 0 59738 23400.00000 0 -4242064.695 9836742.260 23159404.503 10 0 59738 24300.00000 0 -7049081.955 9508583.590 22609705.045 10 0 59738 25200.00000 0 -9778229.911 9400564.449 21621571.909 10 0 59738 26100.00000 0 -12360252.764 9499597.438 20214320.327 10 0 59738 27000.00000 0 -14730648.294 9780667.526 18415354.633 10 0 59738 27900.00000 0 -16832121.898 10207998.651 16259631.932 10 0 59738 28800.00000 0 -18616747.408 10736684.605 13788983.330 10 0 59738 29700.00000 0 -20047746.779 11314715.261 11051305.628 10 0 59738 30600.00000 0 -21100816.385 11885312.972 8099638.594 10 0 59738 31500.00000 0 -21764946.189 12389481.214 4991145.078 10 0 59738 32400.00000 0 -22042698.990 12768658.740 1786012.941 10 0 59738 33300.00000 0 -21949939.037 12967368.111 -1453700.781 10 0 59738 34200.00000 0 -21515021.946 12935747.605 -4665261.773 10 0 59738 35100.00000 0 -20777480.114 12631860.190 -7786464.082 10 0 59738 36000.00000 0 -19786258.600 12023682.334 -10756826.803 10 0 59738 36900.00000 0 -18597575.094 11090688.557 -13518759.157 10 0 59738 37800.00000 0 -17272493.165 9824964.218 -16018671.897 10 0 59738 38700.00000 0 -15874309.905 8231798.415 -18208013.971 10 0 59738 39600.00000 0 -14465866.880 6329730.376 -20044214.569 10 0 59738 40500.00000 0 -13106896.567 4150045.224 -21491512.512 10 0 59738 41400.00000 0 -11851515.089 1735737.742 -22521656.912 10 0 59738 42300.00000 0 -10745966.211 -860014.996 -23114465.247 10 0 59738 43200.00000 0 -9826711.267 -3575810.932 -23258227.584 10 0 59738 44100.00000 0 -9118945.455 -6344330.937 -22949948.384 10 0 59738 45000.00000 0 -8635603.407 -9094903.002 -22195420.207 10 0 59738 45900.00000 0 -8376896.567 -11756217.364 -21009126.749 10 0 59738 46800.00000 0 -8330402.719 -14259080.356 -19413975.776 10 0 59738 47700.00000 0 -8471704.735 -16539092.444 -17440865.904 10 0 59738 48600.00000 0 -8765552.339 -18539138.611 -15128094.450 10 0 59738 49500.00000 0 -9167498.249 -20211586.539 -12520616.959 10 0 59738 50400.00000 0 -9625939.595 -21520099.796 -9669172.280 10 0 59738 51300.00000 0 -10084477.813 -22440989.325 -6629290.141 10 0 59738 52200.00000 0 -10484496.169 -22964045.908 -3460200.882 10 0 59738 53100.00000 0 -10767844.389 -23092818.264 -223669.546 10 0 59738 54000.00000 0 -10879514.965 -22844325.281 3017221.731 10 0 59738 54900.00000 0 -10770195.866 -22248215.185 6199317.801 10 0 59738 55800.00000 0 -10398589.751 -21345408.194 9260635.049 10 0 59738 56700.00000 0 -9733399.832 -20186281.505 12141580.633 10 0 59738 57600.00000 0 -8754897.130 -18828474.886 14786121.326 10 0 59738 58500.00000 0 -7456002.048 -17334411.217 17142878.170 10 0 59738 59400.00000 0 -5842834.202 -15768638.060 19166125.201 10 0 59738 60300.00000 0 -3934707.282 -14195103.352 20816672.888 10 0 59738 61200.00000 0 -1763569.387 -12674480.508 22062619.628 10 0 59738 62100.00000 0 627087.315 -11261655.311 22879957.740 10 0 59738 63000.00000 0 3183801.717 -10003479.408 23253023.516 10 0 59738 63900.00000 0 5845137.618 -8936883.403 23174784.086 10 0 59738 64800.00000 0 8544013.297 -8087426.873 22646957.061 10 0 59738 65700.00000 0 11210270.253 -7468343.967 21679962.018 10 0 59738 66600.00000 0 13773374.999 -7080122.468 20292705.926 10 0 59738 67500.00000 0 16165142.774 -6910631.815 18512207.468 10 0 59738 68400.00000 0 18322371.419 -6935792.911 16373067.993 10 0 59738 69300.00000 0 20189277.441 -7120760.198 13916799.438 10 0 59738 70200.00000 0 21719634.689 -7421565.369 11191022.023 10 0 59738 71100.00000 0 22878528.248 -7787153.144 8248546.717 10 0 59738 72000.00000 0 23643651.891 -8161723.415 5146359.674 10 0 59738 72900.00000 0 24006096.244 -8487281.399 1944527.490 10 0 59738 73800.00000 0 23970595.665 -8706288.829 -1294956.327 10 0 59738 74700.00000 0 23555224.069 -8764304.987 -4509362.028 10 0 59738 75600.00000 0 22790552.652 -8612506.633 -7636429.138 10 0 59738 76500.00000 0 21718304.645 -8209980.828 -10615564.167 10 0 59738 77400.00000 0 20389563.024 -7525693.888 -13389007.780 10 0 59738 78300.00000 0 18862605.613 -6540052.958 -15902949.398 10 0 59738 79200.00000 0 17200457.455 -5245993.454 -18108568.030 10 0 59738 80100.00000 0 15468262.165 -3649545.141 -19962979.416 10 0 59738 81000.00000 0 13730581.493 -1769851.122 -21430071.346 10 0 59738 81900.00000 0 12048735.459 361363.436 -22481210.937 10 0 59738 82800.00000 0 10478293.918 2700853.060 -23095809.932 10 0 59738 83700.00000 0 9066824.276 5195402.485 -23261736.613 10 0 59738 84600.00000 0 7851989.640 7783803.660 -22975565.642 10 0 59738 85500.00000 0 6860077.334 10399178.902 -22242660.017 10 0 59739 0.00000 0 6105019.972 12971554.847 -21077082.532 10 0 59739 900.00000 0 5587950.340 15430582.478 -19501336.493 10 0 59739 1800.00000 0 5297310.404 17708286.825 -17545941.102 10 0 59739 2700.00000 0 5209508.970 19741736.258 -15248846.499 10 0 59739 3600.00000 0 5290101.637 21475515.856 -12654700.372 10 0 59739 4500.00000 0 5495442.747 22863901.906 -9813979.303 10 0 59739 5400.00000 0 5774739.136 23872645.245 -6782001.732 10 0 59739 6300.00000 0 6072417.870 24480287.636 -3617842.065 10 0 59739 7200.00000 0 6330706.380 24678955.146 -383168.010 10 0 59739 8100.00000 0 6492314.001 24474594.837 2858974.991 10 0 59739 9000.00000 0 6503099.359 23886644.965 6045407.079 10 0 59739 9900.00000 0 6314608.690 22947153.264 9114059.040 10 0 59739 10800.00000 0 5886375.743 21699381.638 12005193.354 10 0 59739 11700.00000 0 5187884.436 20195957.520 14662576.073 10 0 59739 12600.00000 0 4200110.163 18496651.443 17034575.660 10 0 59739 13500.00000 0 2916574.021 16665875.956 19075166.924 10 0 59739 14400.00000 0 1343865.213 14770012.353 20744820.591 10 0 59739 15300.00000 0 -498390.208 12874678.410 22011261.649 10 0 59739 16200.00000 0 -2578112.705 11042052.042 22850082.796 10 0 59739 17100.00000 0 -4851879.911 9328362.603 23245202.368 10 0 59739 18000.00000 0 -7266517.804 7781653.901 23189159.342 10 0 59739 18900.00000 0 -9761105.885 6439910.868 22683241.228 10 0 59739 19800.00000 0 -12269312.998 5329626.165 21737443.778 10 0 59739 20700.00000 0 -14721966.950 4464864.396 20370264.450 10 0 59739 21600.00000 0 -17049751.935 3846860.697 18608334.477 10 0 59739 22500.00000 0 -19185922.668 3464168.248 16485897.129 10 0 59739 23400.00000 0 -21068923.651 3293346.656 14044142.397 10 0 59739 24300.00000 0 -22644806.013 3300160.809 11330410.780 10 0 59739 25200.00000 0 -23869342.773 3441238.840 8397281.067 10 0 59739 26100.00000 0 -24709755.617 3666119.009 5301559.188 10 0 59739 27000.00000 0 -25145982.312 3919599.212 2103186.929 10 0 59739 27900.00000 0 -25171432.663 4144290.394 -1135909.202 10 0 59739 28800.00000 0 -24793201.867 4283266.622 -4353007.364 10 0 59739 29700.00000 0 -24031732.528 4282700.498 -7485795.733 10 0 59739 30600.00000 0 -22919939.224 4094373.086 -10473571.177 10 0 59739 31500.00000 0 -21501831.801 3677952.601 -13258408.512 10 0 59739 32400.00000 0 -19830694.236 3002945.518 -15786278.217 10 0 59739 33300.00000 0 -17966894.339 2050237.206 -18008091.401 10 0 59739 34200.00000 0 -15975414.945 813156.088 -19880651.981 10 0 59739 35100.00000 0 -13923208.794 -701985.074 -21367497.867 10 0 59739 36000.00000 0 -11876486.703 -2475895.581 -22439614.835 10 0 59739 36900.00000 0 -9898051.630 -4476862.987 -23076009.036 10 0 59739 37800.00000 0 -8044789.426 -6661838.336 -23264126.622 10 0 59739 38700.00000 0 -6365420.805 -8978007.674 -23000111.654 10 0 59739 39600.00000 0 -4898608.495 -11364786.454 -22288896.350 10 0 59739 40500.00000 0 -3671498.917 -13756155.563 -21144120.789 10 0 59739 41400.00000 0 -2698759.752 -16083242.958 -19587882.357 10 0 59739 42300.00000 0 -1982154.230 -18277043.887 -17650318.532 10 0 59739 43200.00000 0 -1510670.299 -20271166.346 -15369029.955 10 0 59739 44100.00000 0 -1261199.465 -22004486.642 -12788353.998 10 0 59739 45000.00000 0 -1199736.608 -23423603.015 -9958502.448 10 0 59739 45900.00000 0 -1283049.661 -24484983.423 -6934579.915 10 0 59739 46800.00000 0 -1460747.710 -25156716.142 -3775502.356 10 0 59739 47700.00000 0 -1677658.711 -25419788.475 -542837.702 10 0 59739 48600.00000 0 -1876414.482 -25268839.038 2700407.662 10 0 59739 49500.00000 0 -2000131.490 -24712351.567 5891031.433 10 0 59739 50400.00000 0 -1995071.901 -23772282.256 8966880.985 10 0 59739 51300.00000 0 -1813170.155 -22483137.013 11868076.203 10 0 59739 52200.00000 0 -1414316.440 -20890538.588 14538184.384 10 0 59739 53100.00000 0 -768299.141 -19049345.306 16925323.214 10 0 59739 54000.00000 0 143676.677 -17021401.990 18983169.899 10 0 59739 54900.00000 0 1327959.276 -14873018.893 20671856.794 10 0 59739 55800.00000 0 2777952.091 -12672285.448 21958736.588 10 0 59739 56700.00000 0 4474168.145 -10486331.903 22819003.186 10 0 59739 57600.00000 0 6384834.320 -8378653.281 23236157.498 10 0 59739 58500.00000 0 8467019.742 -6406606.857 23202310.602 10 0 59739 59400.00000 0 10668240.790 -4619186.224 22718319.904 10 0 59739 60300.00000 0 12928475.713 -3055162.981 21793757.089 10 0 59739 61200.00000 0 15182504.989 -1741671.353 20446709.648 10 0 59739 62100.00000 0 17362480.510 -693292.361 18703420.695 10 0 59739 63000.00000 0 19400617.443 88326.698 16597774.536 10 0 59739 63900.00000 0 21231897.682 614303.741 14170638.092 10 0 59739 64800.00000 0 22796673.522 907813.417 11469070.753 10 0 59739 65700.00000 0 24043064.318 1002869.815 8545417.439 10 0 59739 66600.00000 0 24929047.277 942652.454 5456301.865 10 0 59739 67500.00000 0 25424156.172 777446.463 2261538.704 10 0 59739 68400.00000 0 25510717.733 562283.773 -977015.106 10 0 59739 69300.00000 0 25184574.458 354384.463 -4196648.393 10 0 59739 70200.00000 0 24455263.673 210505.820 -7335000.845 10 0 59739 71100.00000 0 23345645.063 184310.488 -10331262.556 10 0 59739 72000.00000 0 21890991.663 323864.506 -13127345.260 10 0 59739 72900.00000 0 20137581.424 669370.694 -15669003.111 10 0 59739 73800.00000 0 18140847.148 1251233.329 -17906881.739 10 0 59739 74700.00000 0 15963160.939 2088536.376 -19797475.456 10 0 59739 75600.00000 0 13671344.451 3188000.587 -21303974.309 10 0 59739 76500.00000 0 11334007.652 4543465.033 -22396984.562 10 0 59739 77400.00000 0 9018826.189 6135916.892 -23055108.397 10 0 59739 78300.00000 0 6789870.047 7934070.609 -23265371.230 10 0 59739 79200.00000 0 4705094.339 9895474.690 -23023487.639 10 0 59739 80100.00000 0 2814096.682 11968102.111 -22333959.846 10 0 59739 81000.00000 0 1156234.703 14092360.012 -21210005.729 10 0 59739 81900.00000 0 -240817.569 16203436.333 -19673316.505 10 0 59739 82800.00000 0 -1362013.636 18233886.365 -17753647.507 10 0 59739 83700.00000 0 -2205339.071 20116351.508 -15488248.866 10 0 59739 84600.00000 0 -2781659.489 21786296.342 -12921146.134 10 0 59739 85500.00000 0 -3114018.399 23184648.523 -10102284.312 10 0 59740 0.00000 0 -3236414.961 24260229.645 -7086552.005 10 0 59740 900.00000 0 -3192114.066 24971874.114 -3932703.323 10 0 59740 1800.00000 0 -3031561.242 25290144.175 -702203.493 10 0 59740 2700.00000 0 -2809992.453 25198569.702 2541983.605 10 0 59740 3600.00000 0 -2584841.684 24694358.146 5736636.811 10 0 59740 4500.00000 0 -2413058.261 23788545.034 8819523.714 10 0 59740 5400.00000 0 -2348449.546 22505578.739 11730625.171 10 0 59740 6300.00000 0 -2439163.389 20882357.637 14413313.136 10 0 59740 7200.00000 0 -2725418.320 18966761.222 16815457.727 10 0 59740 8100.00000 0 -3237578.510 16815738.172 18890441.468 10 0 59740 9000.00000 0 -3994655.334 14493032.849 20598060.959 10 0 59740 9900.00000 0 -5003298.820 12066646.657 21905298.846 10 0 59740 10800.00000 0 -6257321.162 9606141.189 22786952.098 10 0 59740 11700.00000 0 -7737771.841 7179895.981 23226105.627 10 0 59740 12600.00000 0 -9413560.594 4852434.973 23214443.549 10 0 59740 13500.00000 0 -11242601.609 2681932.060 22752393.574 10 0 59740 14400.00000 0 -13173430.754 717997.987 21849103.157 10 0 59740 15300.00000 0 -15147228.183 -1000161.217 20522249.057 10 0 59740 16200.00000 0 -17100162.112 -2445140.013 18797684.902 10 0 59740 17100.00000 0 -18965956.590 -3602227.639 16708934.079 10 0 59740 18000.00000 0 -20678576.900 -4469766.038 14296537.948 10 0 59740 18900.00000 0 -22174921.582 -5058958.684 11607271.830 10 0 59740 19800.00000 0 -23397409.844 -5393140.203 8693243.449 10 0 59740 20700.00000 0 -24296357.313 -5506538.729 5610890.721 10 0 59740 21600.00000 0 -24832041.820 -5442583.901 2419897.483 10 0 59740 22500.00000 0 -24976373.504 -5251832.068 -817952.678 10 0 59740 23400.00000 0 -24714099.750 -4989596.066 -4039962.984 10 0 59740 24300.00000 0 -24043494.553 -4713379.210 -7183728.258 10 0 59740 25200.00000 0 -22976503.085 -4480221.318 -10188335.266 10 0 59740 26100.00000 0 -21538334.728 -4344068.291 -12995535.871 10 0 59740 27000.00000 0 -19766520.576 -4353275.976 -15550870.817 10 0 59740 27900.00000 0 -17709473.526 -4548353.558 -17804722.791 10 0 59740 28800.00000 0 -15424609.736 -4960041.968 -19713278.583 10 0 59740 29700.00000 0 -12976108.380 -5607809.027 -21239381.928 10 0 59740 30600.00000 0 -10432401.659 -6498825.905 -22353260.539 10 0 59740 31500.00000 0 -7863498.443 -7627469.572 -23033112.983 10 0 59740 32400.00000 0 -5338251.877 -8975374.156 -23265543.682 10 0 59740 33300.00000 0 -2921683.908 -10512031.294 -23045836.917 10 0 59740 34200.00000 0 -672477.672 -12195916.574 -22378063.613 10 0 59740 35100.00000 0 1359258.020 -13976096.993 -21275017.731 10 0 59740 36000.00000 0 3133858.907 -15794253.986 -19757982.253 10 0 59740 36900.00000 0 4623531.844 -17587038.544 -17856328.043 10 0 59740 37800.00000 0 5813277.859 -19288660.522 -15606952.176 10 0 59740 38700.00000 0 6701272.839 -20833603.702 -13053565.689 10 0 59740 39600.00000 0 7298689.812 -22159352.123 -10245843.983 10 0 59740 40500.00000 0 7628970.603 -23209012.185 -7238456.236 10 0 59740 41400.00000 0 7726578.254 -23933718.892 -4089992.913 10 0 59740 42300.00000 0 7635283.881 -24294723.420 -861813.156 10 0 59740 43200.00000 0 7406061.904 -24265072.612 2383164.413 10 0 59740 44100.00000 0 7094684.505 -23830808.387 5581702.425 10 0 59740 45000.00000 0 6759119.153 -22991635.660 8671491.144 10 0 59740 45900.00000 0 6456841.490 -21761030.301 11592374.666 10 0 59740 46800.00000 0 6242179.251 -20165782.712 14287531.623 10 0 59740 47700.00000 0 6163801.271 -18244996.879 16704586.303 10 0 59740 48600.00000 0 6262458.944 -16048587.882 18796627.981 10 0 59740 49500.00000 0 6569076.231 -13635341.944 20523118.599 10 0 59740 50400.00000 0 7103268.975 -11070621.393 21850671.515 10 0 59740 51300.00000 0 7872355.642 -8423811.266 22753687.171 10 0 59740 52200.00000 0 8870900.498 -5765614.503 23214834.564 10 0 59740 53100.00000 0 10080807.628 -3165308.416 23225370.634 10 0 59740 54000.00000 0 11471961.044 -688075.904 22785292.928 10 0 59740 54900.00000 0 13003383.405 1607478.888 21903323.991 10 0 59740 55800.00000 0 14624864.367 3671528.884 20596728.998 10 0 59740 56700.00000 0 16278990.385 5464847.173 18890971.095 10 0 59740 57600.00000 0 17903491.306 6960181.477 16819211.610 10 0 59740 58500.00000 0 19433806.196 8143125.120 14421665.063 10 0 59740 59400.00000 0 20805761.936 9012450.591 11744821.270 10 0 59740 60300.00000 0 21958253.537 9579893.852 8840549.140 10 0 59740 61200.00000 0 22835814.961 9869400.023 5765098.963 10 0 59740 62100.00000 0 23390973.781 9915863.348 2578021.701 10 0 59740 63000.00000 0 23586291.751 9763415.066 -658974.622 10 0 59740 63900.00000 0 23396006.191 9463331.441 -3883209.991 10 0 59740 64800.00000 0 22807203.474 9071649.973 -7032236.794 10 0 59740 65700.00000 0 21820475.070 8646593.883 -10045040.898 10 0 59740 66600.00000 0 20450027.957 8245912.993 -12863216.648 10 0 59740 67500.00000 0 18723243.638 7924252.701 -15432093.603 10 0 59740 68400.00000 0 16679702.794 7730661.690 -17701793.577 10 0 59740 69300.00000 0 14369714.749 7706343.413 -19628197.747 10 0 59740 70200.00000 0 11852411.377 7882746.432 -21173805.319 10 0 59740 71100.00000 0 9193483.186 8280074.732 -22308467.109 10 0 59740 72000.00000 0 6462650.325 8906281.886 -23009979.615 10 0 59740 72900.00000 0 3730972.360 9756592.873 -23264527.682 10 0 59740 73800.00000 0 1068107.596 10813575.527 -23066966.527 10 0 59740 74700.00000 0 -1460364.755 12047760.563 -22420936.757 10 0 59740 75600.00000 0 -3795448.631 13418786.211 -21338809.072 10 0 59740 76500.00000 0 -5886957.266 14877021.211 -19841458.491 10 0 59740 77400.00000 0 -7695368.449 16365599.522 -17957871.232 10 0 59740 78300.00000 0 -9193231.253 17822782.262 -15724590.691 10 0 59740 79200.00000 0 -10366065.088 19184548.053 -13185012.290 10 0 59740 80100.00000 0 -11212713.251 20387302.587 -10388540.298 10 0 59740 81000.00000 0 -11745136.203 21370592.594 -7389622.785 10 0 59740 81900.00000 0 -11987653.756 22079708.673 -4246683.707 10 0 59740 82800.00000 0 -11975668.889 22468065.661 -1020973.728 10 0 59740 83700.00000 0 -11753928.408 22499258.576 2224636.720 10 0 59740 84600.00000 0 -11374395.589 22148705.807 5426897.196 10 0 59740 85500.00000 0 -10893826.718 21404809.037 8523423.940 99